Time,TemperatureF,DewpointF,PressureIn,WindDirection,WindDirectionDegrees,WindSpeedMPH,WindSpeedGustMPH,Humidity,HourlyPrecipIn,Conditions,Clouds,dailyrainin,SoftwareType,DateUTC
2013-08-02 00:11:00,67.4,67.0,29.84,East,99,3.0,4.0,97,0.00,,,0.00,weatherlink.com 1.10,2013-08-02 04:11:00,
2013-08-02 00:26:00,67.6,67.0,29.83,East,86,4.0,4.0,96,0.00,,,0.00,weatherlink.com 1.10,2013-08-02 04:26:00,
2013-08-02 00:41:00,67.7,67.0,29.82,ENE,76,3.0,7.0,96,0.00,,,0.00,weatherlink.com 1.10,2013-08-02 04:41:00,
2013-08-02 00:56:00,67.5,66.0,29.82,East,90,4.0,6.0,96,0.00,,,0.00,weatherlink.com 1.10,2013-08-02 04:56:00,
2013-08-02 01:11:00,67.5,66.0,29.82,East,89,2.0,4.0,96,0.00,,,0.00,weatherlink.com 1.10,2013-08-02 05:11:00,
2013-08-02 01:26:00,67.8,67.0,29.81,East,92,2.0,3.0,97,0.00,,,0.00,weatherlink.com 1.10,2013-08-02 05:26:00,
2013-08-02 01:42:00,67.7,67.0,29.80,East,88,3.0,4.0,96,0.00,,,0.00,weatherlink.com 1.10,2013-08-02 05:42:00,
2013-08-02 01:57:00,67.7,67.0,29.79,ESE,102,3.0,5.0,96,0.00,,,0.00,weatherlink.com 1.10,2013-08-02 05:57:00,
2013-08-02 02:12:00,67.8,67.0,29.78,East,87,2.0,3.0,96,0.00,,,0.00,weatherlink.com 1.10,2013-08-02 06:12:00,
2013-08-02 02:27:00,67.9,67.0,29.78,East,81,2.0,4.0,96,0.00,,,0.00,weatherlink.com 1.10,2013-08-02 06:27:00,
2013-08-02 02:42:00,68.0,67.0,29.77,East,90,3.0,5.0,96,0.00,,,0.00,weatherlink.com 1.10,2013-08-02 06:42:00,
2013-08-02 02:57:00,68.1,67.0,29.77,ENE,74,2.0,4.0,95,0.00,,,0.00,weatherlink.com 1.10,2013-08-02 06:57:00,
2013-08-02 03:12:00,68.2,67.0,29.77,East,86,3.0,4.0,95,0.00,,,0.00,weatherlink.com 1.10,2013-08-02 07:12:00,
2013-08-02 03:27:00,68.2,67.0,29.76,East,92,2.0,3.0,96,0.00,,,0.00,weatherlink.com 1.10,2013-08-02 07:27:00,
2013-08-02 03:42:00,68.3,68.0,29.76,East,91,0.0,2.0,97,0.00,,,0.00,weatherlink.com 1.10,2013-08-02 07:42:00,
2013-08-02 03:57:00,68.4,68.0,29.76,East,86,2.0,2.0,97,0.02,,,0.02,weatherlink.com 1.10,2013-08-02 07:57:00,
2013-08-02 04:12:00,68.4,68.0,29.76,East,91,0.0,1.0,97,0.03,,,0.03,weatherlink.com 1.10,2013-08-02 08:12:00,
2013-08-02 04:27:00,68.6,68.0,29.76,ESE,110,1.0,2.0,98,0.05,,,0.05,weatherlink.com 1.10,2013-08-02 08:27:00,
2013-08-02 04:42:00,68.8,68.0,29.76,SSE,167,3.0,3.0,98,0.06,,,0.06,weatherlink.com 1.10,2013-08-02 08:42:00,
2013-08-02 04:57:00,68.7,68.0,29.76,SSE,165,0.0,3.0,98,0.04,,,0.06,weatherlink.com 1.10,2013-08-02 08:57:00,
2013-08-02 05:12:00,68.8,68.0,29.77,SSW,203,0.0,2.0,98,0.03,,,0.06,weatherlink.com 1.10,2013-08-02 09:12:00,
2013-08-02 05:27:00,-999.0,-99.9,29.77,North,-999,-999.0,-999.0,-999,0.01,,,0.06,weatherlink.com 1.10,2013-08-02 09:27:00,
2013-08-02 05:42:00,-999.0,-99.9,29.76,North,-999,-999.0,-999.0,-999,0.00,,,0.06,weatherlink.com 1.10,2013-08-02 09:42:00,
2013-08-02 05:57:00,-999.0,-99.9,29.77,North,-999,-999.0,-999.0,-999,0.00,,,0.06,weatherlink.com 1.10,2013-08-02 09:57:00,
2013-08-02 06:12:00,-999.0,-99.9,29.77,North,-999,-999.0,-999.0,-999,0.00,,,0.06,weatherlink.com 1.10,2013-08-02 10:12:00,
2013-08-02 06:27:00,-999.0,-99.9,29.77,North,-999,-999.0,-999.0,-999,0.00,,,0.06,weatherlink.com 1.10,2013-08-02 10:27:00,
2013-08-02 06:42:00,-999.0,-99.9,29.77,North,-999,-999.0,-999.0,-999,0.00,,,0.06,weatherlink.com 1.10,2013-08-02 10:42:00,
2013-08-02 06:57:00,-999.0,-99.9,29.78,North,-999,-999.0,-999.0,-999,0.00,,,0.06,weatherlink.com 1.10,2013-08-02 10:57:00,
2013-08-02 07:12:00,-999.0,-99.9,29.78,North,-999,-999.0,-999.0,-999,0.00,,,0.06,weatherlink.com 1.10,2013-08-02 11:12:00,
2013-08-02 07:28:00,-999.0,-99.9,29.78,North,-999,-999.0,-999.0,-999,0.00,,,0.06,weatherlink.com 1.10,2013-08-02 11:28:00,
2013-08-02 07:43:00,-999.0,-99.9,29.79,North,-999,-999.0,-999.0,-999,0.00,,,0.06,weatherlink.com 1.10,2013-08-02 11:43:00,
2013-08-02 07:58:00,-999.0,-99.9,29.79,North,-999,-999.0,-999.0,-999,0.00,,,0.06,weatherlink.com 1.10,2013-08-02 11:58:00,
2013-08-02 08:13:00,69.7,69.0,29.80,SW,225,2.0,4.0,98,0.00,,,0.06,weatherlink.com 1.10,2013-08-02 12:13:00,
2013-08-02 08:28:00,70.0,69.0,29.80,SW,226,2.0,5.0,97,0.00,,,0.06,weatherlink.com 1.10,2013-08-02 12:28:00,
2013-08-02 08:43:00,70.1,69.0,29.80,SSW,208,2.0,5.0,96,0.00,,,0.06,weatherlink.com 1.10,2013-08-02 12:43:00,
2013-08-02 08:58:00,71.1,70.0,29.80,SSW,205,0.0,4.0,95,0.00,,,0.06,weatherlink.com 1.10,2013-08-02 12:58:00,
2013-08-02 09:13:00,71.9,70.0,29.80,SSW,210,0.0,5.0,92,0.00,,,0.06,weatherlink.com 1.10,2013-08-02 13:13:00,
2013-08-02 09:28:00,73.4,70.0,29.81,SW,232,0.0,2.0,90,0.00,,,0.06,weatherlink.com 1.10,2013-08-02 13:28:00,
2013-08-02 09:43:00,73.6,69.0,29.81,SW,232,3.0,6.0,86,0.00,,,0.06,weatherlink.com 1.10,2013-08-02 13:43:00,
2013-08-02 09:58:00,74.5,70.0,29.81,SW,226,0.0,4.0,85,0.00,,,0.06,weatherlink.com 1.10,2013-08-02 13:58:00,
2013-08-02 10:13:00,75.0,70.0,29.82,WSW,249,4.0,7.0,83,0.00,,,0.06,weatherlink.com 1.10,2013-08-02 14:13:00,
2013-08-02 10:28:00,76.1,71.0,29.82,WSW,239,1.0,4.0,83,0.00,,,0.06,weatherlink.com 1.10,2013-08-02 14:28:00,
2013-08-02 10:43:00,77.2,71.0,29.82,WSW,249,2.0,5.0,80,0.00,,,0.06,weatherlink.com 1.10,2013-08-02 14:43:00,
2013-08-02 10:58:00,77.2,70.0,29.82,SSW,201,2.0,5.0,78,0.00,,,0.06,weatherlink.com 1.10,2013-08-02 14:58:00,
2013-08-02 11:13:00,77.7,69.0,29.82,West,271,5.0,8.0,75,0.00,,,0.06,weatherlink.com 1.10,2013-08-02 15:13:00,
2013-08-02 11:28:00,77.0,69.0,29.83,SW,225,5.0,8.0,77,0.00,,,0.06,weatherlink.com 1.10,2013-08-02 15:28:00,
2013-08-02 11:43:00,77.1,68.0,29.83,West,270,4.0,9.0,74,0.00,,,0.06,weatherlink.com 1.10,2013-08-02 15:43:00,
2013-08-02 11:58:00,77.9,69.0,29.83,WSW,257,4.0,8.0,74,0.00,,,0.06,weatherlink.com 1.10,2013-08-02 15:58:00,
2013-08-02 12:13:00,78.8,69.0,29.83,SSW,208,3.0,10.0,73,0.00,,,0.06,weatherlink.com 1.10,2013-08-02 16:13:00,
2013-08-02 12:28:00,79.0,69.0,29.82,WSW,257,5.0,6.0,72,0.00,,,0.06,weatherlink.com 1.10,2013-08-02 16:28:00,
2013-08-02 12:43:00,79.5,68.0,29.82,WSW,245,4.0,9.0,67,0.00,,,0.06,weatherlink.com 1.10,2013-08-02 16:43:00,
2013-08-02 12:58:00,79.8,69.0,29.82,SW,214,3.0,10.0,69,0.00,,,0.06,weatherlink.com 1.10,2013-08-02 16:58:00,
2013-08-02 13:13:00,79.4,69.0,29.82,SSW,205,4.0,6.0,71,0.00,,,0.06,weatherlink.com 1.10,2013-08-02 17:13:00,
2013-08-02 13:28:00,79.3,69.0,29.82,SW,222,3.0,10.0,71,0.00,,,0.06,weatherlink.com 1.10,2013-08-02 17:28:00,
2013-08-02 13:43:00,79.1,69.0,29.82,SW,214,3.0,7.0,70,0.00,,,0.06,weatherlink.com 1.10,2013-08-02 17:43:00,
2013-08-02 13:58:00,79.1,70.0,29.82,South,174,3.0,9.0,74,0.00,,,0.06,weatherlink.com 1.10,2013-08-02 17:58:00,
2013-08-02 14:13:00,77.3,68.0,29.82,SSE,158,4.0,10.0,74,0.00,,,0.06,weatherlink.com 1.10,2013-08-02 18:13:00,
2013-08-02 14:28:00,77.2,68.0,29.82,South,176,4.0,10.0,74,0.00,,,0.06,weatherlink.com 1.10,2013-08-02 18:28:00,
2013-08-02 14:43:00,77.3,70.0,29.82,SW,214,5.0,6.0,77,0.00,,,0.06,weatherlink.com 1.10,2013-08-02 18:43:00,
2013-08-02 14:59:00,77.1,69.0,29.82,SSW,207,4.0,7.0,77,0.00,,,0.06,weatherlink.com 1.10,2013-08-02 18:59:00,
2013-08-02 15:13:00,77.5,68.0,29.82,South,181,3.0,10.0,73,0.00,,,0.06,weatherlink.com 1.10,2013-08-02 19:13:00,
2013-08-02 15:29:00,79.0,67.0,29.82,South,176,2.0,12.0,67,0.00,,,0.06,weatherlink.com 1.10,2013-08-02 19:29:00,
2013-08-02 15:44:00,79.5,68.0,29.82,West,259,7.0,11.0,67,0.00,,,0.06,weatherlink.com 1.10,2013-08-02 19:44:00,
2013-08-02 15:59:00,79.3,67.0,29.83,South,190,2.0,15.0,66,0.00,,,0.06,weatherlink.com 1.10,2013-08-02 19:59:00,
2013-08-02 16:13:00,79.2,67.0,29.82,WSW,257,2.0,8.0,66,0.00,,,0.06,weatherlink.com 1.10,2013-08-02 20:13:00,
2013-08-02 16:29:00,80.1,68.0,29.82,SW,215,4.0,9.0,66,0.00,,,0.06,weatherlink.com 1.10,2013-08-02 20:29:00,
2013-08-02 16:44:00,79.5,67.0,29.82,South,179,3.0,6.0,65,0.00,,,0.06,weatherlink.com 1.10,2013-08-02 20:44:00,
2013-08-02 16:59:00,79.1,65.0,29.81,SW,219,4.0,7.0,63,0.00,,,0.06,weatherlink.com 1.10,2013-08-02 20:59:00,
2013-08-02 17:14:00,78.0,64.0,29.82,SW,218,2.0,6.0,63,0.00,,,0.06,weatherlink.com 1.10,2013-08-02 21:14:00,
2013-08-02 17:29:00,79.0,66.0,29.82,WSW,257,2.0,5.0,64,0.00,,,0.06,weatherlink.com 1.10,2013-08-02 21:29:00,
2013-08-02 17:44:00,78.2,67.0,29.82,SSW,195,2.0,4.0,68,0.00,,,0.06,weatherlink.com 1.10,2013-08-02 21:44:00,
2013-08-02 17:59:00,80.0,65.0,29.81,SSW,208,3.0,10.0,61,0.00,,,0.06,weatherlink.com 1.10,2013-08-02 21:59:00,
2013-08-02 18:14:00,80.1,65.0,29.82,SW,226,3.0,8.0,60,0.00,,,0.06,weatherlink.com 1.10,2013-08-02 22:14:00,
2013-08-02 18:30:00,79.9,65.0,29.82,WSW,257,2.0,7.0,61,0.00,,,0.06,weatherlink.com 1.10,2013-08-02 22:30:00,
2013-08-02 18:44:00,76.7,67.0,29.83,SSW,203,3.0,6.0,73,0.00,,,0.06,weatherlink.com 1.10,2013-08-02 22:44:00,
2013-08-02 18:59:00,74.5,68.0,29.83,SSW,197,0.0,5.0,81,0.00,,,0.06,weatherlink.com 1.10,2013-08-02 22:59:00,
2013-08-02 19:14:00,73.7,69.0,29.82,SSW,211,1.0,4.0,84,0.00,,,0.06,weatherlink.com 1.10,2013-08-02 23:14:00,
2013-08-02 19:29:00,73.1,68.0,29.82,South,179,2.0,4.0,85,0.00,,,0.06,weatherlink.com 1.10,2013-08-02 23:29:00,
2013-08-02 19:44:00,72.9,68.0,29.83,SW,225,2.0,4.0,85,0.00,,,0.06,weatherlink.com 1.10,2013-08-02 23:44:00,
2013-08-02 19:59:00,72.3,68.0,29.83,South,188,2.0,3.0,86,0.00,,,0.06,weatherlink.com 1.10,2013-08-02 23:59:00,
2013-08-02 20:14:00,71.9,68.0,29.84,SW,228,2.0,4.0,87,0.00,,,0.06,weatherlink.com 1.10,2013-08-03 00:14:00,
2013-08-02 20:29:00,72.4,67.0,29.84,SSW,210,2.0,6.0,84,0.00,,,0.06,weatherlink.com 1.10,2013-08-03 00:29:00,
2013-08-02 20:44:00,72.0,68.0,29.85,South,188,5.0,6.0,86,0.00,,,0.06,weatherlink.com 1.10,2013-08-03 00:44:00,
2013-08-02 20:59:00,72.0,68.0,29.85,WSW,243,2.0,7.0,87,0.00,,,0.06,weatherlink.com 1.10,2013-08-03 00:59:00,
2013-08-02 21:14:00,72.0,68.0,29.86,SSW,203,2.0,6.0,88,0.00,,,0.06,weatherlink.com 1.10,2013-08-03 01:14:00,
2013-08-02 21:29:00,71.5,68.0,29.86,SW,214,3.0,3.0,89,0.00,,,0.06,weatherlink.com 1.10,2013-08-03 01:29:00,
2013-08-02 21:44:00,71.4,68.0,29.86,SSW,212,4.0,4.0,90,0.00,,,0.06,weatherlink.com 1.10,2013-08-03 01:44:00,
2013-08-02 21:59:00,71.5,69.0,29.86,SSW,195,2.0,5.0,90,0.00,,,0.06,weatherlink.com 1.10,2013-08-03 01:59:00,
2013-08-02 22:14:00,71.3,69.0,29.86,WSW,238,2.0,4.0,91,0.00,,,0.06,weatherlink.com 1.10,2013-08-03 02:14:00,
2013-08-02 22:29:00,71.1,69.0,29.86,South,183,1.0,4.0,92,0.00,,,0.06,weatherlink.com 1.10,2013-08-03 02:29:00,
2013-08-02 22:44:00,70.9,69.0,29.86,SSW,205,2.0,4.0,93,0.00,,,0.06,weatherlink.com 1.10,2013-08-03 02:44:00,
2013-08-02 22:59:00,70.8,69.0,29.86,SW,219,4.0,4.0,94,0.00,,,0.06,weatherlink.com 1.10,2013-08-03 02:59:00,
2013-08-02 23:14:00,71.0,69.0,29.86,SSW,201,1.0,4.0,94,0.00,,,0.06,weatherlink.com 1.10,2013-08-03 03:14:00,
2013-08-02 23:29:00,71.1,69.0,29.86,SW,236,1.0,4.0,93,0.00,,,0.06,weatherlink.com 1.10,2013-08-03 03:29:00,
2013-08-02 23:44:00,70.7,69.0,29.86,SW,228,0.0,2.0,94,0.00,,,0.06,weatherlink.com 1.10,2013-08-03 03:44:00,
2013-08-02 23:59:00,70.6,69.0,29.87,WSW,257,1.0,3.0,95,0.00,,,0.06,weatherlink.com 1.10,2013-08-03 03:59:00,